Location: Broke Rock Hollow
(32.1646°N, 97.4556°W)
Time: 22:04:23
(UTC+00:00)

Daily predictions for brighter satellites

Satellite Brightness Start Highest point End
(mag) Time Altitude Azimuth Time Altitude Azimuth Time Altitude Azimuth
Milstar 3 Cent rocket 3.5 12:01:50 17° WSW 12:05:25 36° SSW 12:12:51 10° SE
Meteor 2-17 Rocket 4.3 12:00:15 10° N 12:06:20 83° W 12:12:22 10° S
Cosmos 1933 3.3 12:06:53 10° NNW 12:10:46 59° W 12:14:37 10° S
ERS-2 1.7 12:08:39 10° NNE 12:11:34 75° ESE 12:14:28 10° S
Cosmos 1627 Rocket 4.5 12:06:01 10° N 12:12:24 79° W 12:18:42 10° S
SAR-Lupe-2 4.4 12:09:16 10° NNE 12:12:46 53° E 12:16:15 10° S
Cosmos 1862 3.3 12:09:08 10° SSW 12:12:52 53° W 12:16:38 10° N
Cosmos 2151 3.0 12:08:48 10° S 12:12:58 79° E 12:17:10 10° N
COSMO-SKYMED 1 2.7 12:08:53 10° S 12:13:07 54° W 12:17:22 10° NNW
Meteor 2-3 Rocket 4.2 12:08:07 10° SW 12:13:10 35° WNW 12:18:15 10° NNW
PSLV R/B 3.4 12:10:39 10° N 12:14:54 66° WNW 12:19:07 10° SSW
GENESIS II 4.0 12:18:24 10° SSW 12:22:13 83° WNW 12:26:05 10° NNE
USA 215 3.5 12:17:11 10° NNE 12:23:22 48° NW 12:29:33 10° WSW
SJ-7 4.5 12:22:39 10° NNE 12:26:46 83° ESE 12:30:50 10° S
BlueWalker 3 2.0 12:25:35 14° NW 12:28:47 65° SW 12:32:32 10° SSE
ATLAS 2A CENTAUR R/B 3.3 12:31:54 10° WSW 12:34:34 17° SSW 12:36:15 10° SSE
SMAP 3.5 12:32:46 10° NNE 12:37:24 67° E 12:42:01 10° S
Cosmos 1110 Rocket 4.0 12:32:49 10° NNW 12:38:08 78° WSW 12:43:23 10° S
Cosmos 1842 Rocket 3.9 12:34:29 10° N 12:38:56 71° E 12:43:21 10° SSE
BREEZE-M R/B 3.2 12:32:24 10° NW 12:39:12 88° NE 12:42:38 10° SE
Aureole 2 4.4 12:36:48 10° N 12:39:47 63° ENE 12:42:37 10° SSE
Cosmos 1437 Rocket 3.0 12:37:58 10° SSW 12:41:30 41° W 12:45:01 10° N
Cosmos 1782 4.2 12:39:30 10° NW 12:42:10 18° W 12:44:48 10° SW
H-2A R/B 3.6 12:40:40 10° NW 12:42:36 12° WNW 12:44:32 10° W
Helios 1B rocket 2.7 12:41:23 10° N 12:45:10 42° WNW 12:48:55 10° SW
CZ-4B R/B 4.2 12:43:52 10° NNE 12:47:55 78° E 12:52:06 10° S
COSMOS 2455 4.5 12:45:20 10° WNW 12:48:17 14° WSW 12:51:16 10° SW
DELTA 2 DEB (DPAF) 4.1 12:44:19 10° SSE 12:48:36 87° ENE 12:52:54 10° NNW
Cosmos 1515 4.1 12:46:23 10° NNW 12:49:44 36° W 12:53:03 10° SSW
APEX 3.6 23:48:40 10° SW 23:51:47 46° WNW 23:54:36 10° N
Cosmos-2242 3.0 23:48:57 10° S 23:53:16 78° E 23:57:36 10° N
CZ-2D R/B 3.8 23:49:42 10° S 23:53:19 60° W 23:56:57 10° NNW
